GFSSE_prec_cloud_276.txt.gz
Cloud_Cover
0 0 0 0 0 0 0 0 0 0 0 32 100 100 100 97 100 100 100 100 100 100 17 97 99 89 14 96 100 100 100 100 100 100 100 81 100 99 84 100 14 95 100
0 0 0 0 0 0 0 0 0 0 28 100 100 100 100 88 100 98 93 100 98 100 100 89 82 96 100 99 100 100 100 100 100 100 100 100 96 96 100 100 90 75 76
0 0 0 0 0 0 0 0 0 4 59 100 100 100 100 100 100 100 100 100 100 86 97 100 79 20 99 100 100 100 100 100 100 100 100 100 100 97 100 100 100 100 100
5 2 0 0 0 0 0 1 1 84 55 87 100 90 100 100 100 100 100 100 69 100 100 98 68 100 95 78 70 100 100 67 100 100 100 87 100 100 100 100 100 74 100
0 0 0 0 0 0 0 0 0 4 46 57 99 100 100 93 100 89 100 100 100 100 100 99 93 100 100 84 76 30 100 99 38 100 100 100 100 100 100 100 100 98 88
0 0 0 0 0 0 0 0 0 41 8 66 95 94 92 100 100 100 100 100 100 100 100 100 100 100 58 80 92 97 98 100 100 100 100 100 100 100 100 100 100 100 38
0 0 0 0 0 0 0 0 2 2 2 61 96 100 100 100 100 44 96 100 100 100 95 99 100 100 86 100 81 69 79 62 96 100 6 51 100 100 100 100 100 100 100
0 0 0 0 0 0 0 0 0 0 4 21 34 51 56 26 3 6 30 98 100 100 100 100 97 100 100 100 100 100 100 98 96 88 40 12 28 100 100 100 100 100 100
0 0 0 0 0 0 0 0 0 0 0 0 7 2 3 0 0 0 3 7 99 93 100 100 100 100 100 100 100 100 100 100 100 85 100 100 5 8 98 100 100 100 100
0 0 0 0 0 0 0 0 0 0 0 0 0 0 0 0 0 0 0 3 14 15 47 98 100 100 100 100 99 87 100 100 56 4 63 10 6 25 6 42 100 100 100
0 0 0 0 0 0 0 0 0 0 0 0 0 0 0 0 0 0 2 4 5 4 5 45 68 100 100 59 0 0 33 0 0 0 0 0 36 100 99 34 99 100 99
0 0 0 0 0 0 0 0 0 0 0 0 0 0 0 0 0 0 0 4 4 3 5 6 7 99 17 0 0 0 0 0 0 0 0 0 0 51 100 100 96 41 99
0 0 0 0 0 0 0 0 0 0 0 0 0 0 0 0 0 0 0 0 2 1 0 0 1 5 5 5 5 2 0 0 0 0 0 0 0 1 87 95 25 6 7
0 0 0 0 0 0 0 0 0 0 0 0 0 0 0 0 0 0 0 0 0 0 0 5 5 5 6 90 18 5 5 5 4 0 0 0 0 0 23 49 14 0 3
0 0 0 0 0 0 0 0 0 0 0 0 0 0 0 0 0 0 0 0 0 0 2 5 20 5 5 98 55 10 99 30 5 5 0 0 1 2 0 2 13 0 0
0 0 0 0 0 0 0 0 0 0 0 0 0 0 0 0 0 0 0 0 0 1 5 6 36 10 5 6 16 5 9 93 61 5 5 0 0 4 0 0 8 0 0
0 0 0 0 0 0 0 0 0 0 0 0 0 0 0 0 0 0 0 0 4 5 5 5 5 5 39 13 44 10 5 6 87 5 5 5 0 0 0 0 0 0 0
0 0 0 0 0 0 0 0 0 0 0 0 0 0 0 0 0 0 4 5 10 55 54 11 34 100 100 10 17 24 74 91 100 70 5 5 2 0 0 0 0 0 30
0 0 0 0 0 0 0 0 0 0 0 0 0 0 0 0 1 5 26 19 84 99 100 100 100 99 100 9 48 92 58 27 62 64 5 4 5 0 3 0 0 0 2
0 0 0 0 0 0 0 0 0 0 0 0 0 0 0 0 4 5 100 100 100 100 96 100 100 100 51 81 60 100 81 60 54 7 21 2 5 3 5 0 0 6 86
0 0 0 0 0 0 0 0 0 0 0 0 0 0 0 0 5 69 100 100 100 100 93 100 100 79 44 100 100 99 100 12 78 29 89 6 1 5 5 5 0 64 66
0 0 0 0 0 0 0 0 0 0 0 0 0 0 0 2 5 97 99 100 100 100 100 100 100 100 100 100 100 100 100 68 87 91 100 29 8 72 39 5 0 4 16
0 0 0 0 0 0 0 0 0 0 0 0 0 0 0 1 5 77 28 76 71 100 100 100 100 100 100 100 100 100 100 100 100 100 100 100 100 100 92 5 5 58 33
0 0 0 0 0 0 0 0 0 0 0 0 0 0 0 0 5 5 5 20 6 99 100 100 100 100 100 100 100 100 100 100 100 100 100 100 100 100 99 68 5 7 99
0 0 0 0 0 0 0 0 0 0 0 0 0 0 0 0 0 4 5 5 5 5 85 100 100 100 99 100 100 100 100 100 100 100 100 100 100 100 100 100 62 93 10
0 0 0 0 0 0 0 0 0 0 0 0 0 0 0 0 0 0 3 5 5 5 34 80 100 100 86 84 100 100 100 100 100 100 100 100 100 100 100 100 64 95 94

GFSSE_prec_cloud_279.txt.gz
Cloud_Cover
0 0 0 0 0 2 4 0 0 2 5 89 100 77 100 100 100 100 100 100 98 79 99 100 47 100 100 100 96 100 100 100 100 100 100 100 100 76 55 79 68 15 99
0 0 0 0 0 0 0 0 0 0 87 100 100 100 100 100 99 100 96 99 100 100 100 100 51 94 78 100 100 100 98 100 94 100 100 100 100 100 100 84 100 15 83
0 0 0 0 0 0 0 0 0 1 69 100 100 100 100 100 100 100 69 100 90 100 99 100 93 100 21 44 100 100 100 96 100 94 100 100 100 100 100 100 86 100 5
0 0 0 0 0 0 0 0 1 0 39 1 84 100 84 85 80 56 98 59 100 100 100 100 100 100 98 100 100 70 100 96 100 98 63 100 100 100 100 100 100 100 50
0 0 0 0 0 0 0 0 0 27 11 24 55 49 100 100 100 94 100 100 100 100 100 100 100 100 100 100 97 90 100 100 100 100 94 87 100 100 100 100 100 100 100
0 0 0 0 0 0 0 3 1 0 3 80 100 99 100 99 100 99 49 64 100 100 100 100 100 82 100 100 100 100 77 98 100 79 52 100 99 93 100 100 100 100 100
0 0 0 0 0 0 0 1 0 32 81 93 88 66 100 99 4 11 29 99 84 100 100 96 100 100 100 100 100 100 100 96 100 100 5 96 14 5 94 100 100 100 100
0 0 0 0 0 0 0 2 0 10 29 78 87 29 36 1 2 0 10 14 82 100 100 98 89 100 100 94 97 100 100 100 75 24 84 80 22 5 26 96 100 100 100
0 0 0 0 0 0 0 0 1 8 22 0 1 0 0 0 0 2 0 0 2 18 29 97 100 100 100 77 100 99 100 100 86 64 62 15 41 48 64 94 98 100 100
0 0 0 0 0 0 0 0 0 0 0 0 0 0 0 0 0 0 2 3 1 2 4 41 20 25 100 100 99 9 80 98 36 0 0 0 0 72 100 60 97 100 100
0 0 0 0 0 0 0 0 0 0 0 0 0 0 0 0 0 0 2 4 5 3 1 4 7 7 48 5 0 0 4 0 0 0 0 0 0 11 99 100 100 100 100
0 0 0 0 0 0 0 0 0 0 0 0 0 0 0 0 0 0 0 1 3 2 4 4 3 4 5 5 5 3 0 1 0 0 0 0 0 46 100 100 100 100 100
0 0 0 0 0 0 0 0 0 0 0 0 0 0 0 0 0 0 0 0 0 0 1 4 4 5 5 5 5 5 5 5 4 5 0 0 0 2 87 100 100 100 100
0 0 0 0 0 0 0 0 0 0 0 0 0 0 0 0 0 0 0 0 1 5 2 5 20 24 20 5 5 5 5 8 5 5 3 0 0 1 28 100 90 100 99
0 0 0 0 0 0 0 0 0 0 0 0 0 0 0 0 0 0 0 0 0 5 5 5 22 38 40 61 23 5 5 25 5 5 5 2 0 19 27 87 99 100 100
0 0 0 0 0 0 0 0 0 0 0 0 0 0 0 0 0 0 0 2 5 5 5 5 5 20 68 74 24 5 5 6 5 5 5 5 5 0 70 77 100 100 100
0 0 0 0 0 0 0 0 0 0 0 0 0 0 0 0 0 0 5 5 5 5 59 30 5 31 99 74 10 8 39 18 10 5 11 14 5 2 0 2 17 22 29
0 0 0 0 0 0 0 0 0 0 0 0 0 0 0 0 0 5 6 99 75 99 86 65 79 100 76 65 7 5 48 85 66 23 10 31 16 5 1 0 0 0 0
0 0 0 0 0 0 0 0 0 0 0 0 0 0 0 0 0 5 100 100 100 100 67 79 96 98 99 39 15 37 48 77 85 56 24 24 32 3 0 0 0 0 0
0 0 0 0 0 0 0 0 0 0 0 0 0 0 0 0 5 34 86 91 100 100 98 72 84 100 79 55 86 97 79 14 6 68 6 27 56 2 0 0 1 0 0
0 0 0 0 0 0 0 0 0 0 0 0 0 0 0 1 5 5 17 46 98 100 100 100 100 100 100 95 100 100 93 32 8 82 99 54 80 4 0 0 5 0 0
0 0 0 0 0 0 0 0 0 0 0 0 0 0 0 0 5 5 5 81 74 100 100 90 100 100 100 94 100 100 92 29 97 77 100 100 100 14 4 7 5 0 0
0 0 0 0 0 0 0 0 0 0 0 0 0 0 0 0 0 5 5 9 13 41 98 94 91 100 100 100 100 100 100 97 100 66 100 100 100 98 95 100 7 3 2
0 0 0 0 0 0 0 0 0 0 0 0 0 0 0 0 0 0 5 5 5 5 28 98 100 100 91 99 70 100 100 100 100 92 85 100 100 100 100 99 88 5 3
0 0 0 0 0 0 0 0 0 0 0 0 0 0 0 0 0 5 5 5 5 5 5 29 98 100 100 100 99 99 100 74 100 100 100 100 100 100 98 81 82 67 37
0 0 0 0 0 0 0 0 0 0 0 0 0 0 0 0 0 5 1 1 5 4 5 5 5 90 100 92 87 100 100 100 100 100 100 100 100 100 100 81 61 98 28

GFSSE_prec_cloud_285.txt.gz
Cloud_Cover
0 0 0 0 0 0 0 0 0 0 2 100 100 100 82 100 97 82 100 100 57 100 100 100 92 91 38 87 100 100 100 100 100 27 55 98 62 99 100 83 47 97 87
0 0 0 0 0 0 0 0 0 0 36 56 99 100 100 96 60 100 18 85 100 100 100 100 100 100 100 60 96 100 100 100 100 97 14 7 99 6 68 100 59 76 68
0 0 0 0 0 0 0 0 1 17 13 20 100 100 33 100 72 100 32 56 100 61 100 100 100 100 100 98 80 70 100 100 100 100 15 12 100 100 100 100 92 76 67
0 0 0 0 0 0 0 0 0 0 28 99 100 100 100 75 8 0 1 8 78 80 98 18 81 100 100 100 100 36 91 90 100 100 100 34 57 100 100 100 100 100 98
0 0 0 0 0 0 0 0 0 88 85 100 100 100 100 90 0 0 0 0 0 52 95 96 44 14 67 100 100 100 100 100 86 90 100 79 88 5 99 100 100 100 100
0 0 0 0 0 0 0 0 0 53 100 95 73 12 34 0 0 0 0 0 0 0 0 4 2 23 52 100 100 86 100 100 100 54 79 100 62 10 100 100 100 100 100
0 0 0 0 0 0 0 0 1 67 15 4 0 0 0 0 0 0 0 0 1 0 2 0 0 0 0 0 0 83 100 100 53 4 7 8 54 92 82 100 100 100 100
0 0 0 0 0 0 0 0 0 4 0 0 0 0 0 0 0 0 0 0 5 0 0 0 2 0 0 0 2 28 74 0 0 5 2 0 0 1 26 97 100 100 100
0 0 0 0 0 0 0 0 0 0 0 0 0 0 0 0 0 0 0 0 0 2 0 0 3 0 1 0 0 0 0 0 0 0 5 0 0 0 0 18 100 100 100
0 0 0 0 0 0 0 0 0 0 0 0 0 0 0 0 0 0 0 0 0 0 5 2 6 2 2 0 0 0 0 0 0 0 0 0 0 0 0 0 3 29 96
0 0 0 0 0 0 0 0 0 0 0 0 0 0 0 0 0 0 0 1 1 2 1 4 5 5 3 5 4 4 0 0 0 0 0 0 0 0 2 0 0 0 98
0 0 0 0 0 0 0 0 0 0 0 0 0 0 0 0 0 0 0 3 5 5 5 3 5 5 5 4 5 4 2 0 0 0 0 0 0 1 3 5 0 0 39
0 0 0 0 0 0 0 0 0 0 0 0 0 0 0 0 0 0 0 0 5 5 5 2 0 2 0 0 0 0 0 2 0 0 0 5 4 0 5 13 19 2 0
0 0 0 0 0 0 0 0 0 0 0 0 0 0 0 0 0 0 3 5 5 2 2 3 0 0 0 0 1 0 0 5 3 0 0 2 4 3 0 5 61 64 100
0 0 0 0 0 0 0 0 0 0 0 0 0 0 0 0 0 0 4 5 8 18 19 11 10 0 1 0 0 0 0 5 5 5 2 3 1 4 5 5 42 100 100
0 0 0 0 0 0 0 0 0 0 0 0 0 0 0 0 0 4 5 0 19 23 26 53 36 26 11 4 2 0 0 5 5 16 6 3 2 0 0 2 5 98 100
0 0 0 0 0 0 0 0 0 0 0 0 0 0 0 0 5 5 0 4 27 96 100 100 100 100 91 11 4 0 0 0 0 0 6 11 0 0 0 4 3 23 99
0 0 0 0 0 0 0 0 0 0 0 0 0 0 0 1 5 5 9 24 100 100 100 100 100 100 100 100 52 6 3 3 0 0 8 31 9 5 21 5 1 53 100
0 0 0 0 0 0 0 0 0 0 0 0 0 0 0 4 5 5 7 16 65 100 100 100 100 100 100 94 92 89 8 6 1 6 33 7 5 84 5 5 5 55 78
0 0 0 0 0 0 0 0 0 0 0 0 0 0 0 3 5 5 5 20 17 100 100 100 100 100 100 62 14 57 16 5 7 99 60 19 5 77 5 75 5 100 95
0 0 0 0 0 0 0 0 0 0 0 0 0 0 0 1 5 5 5 4 23 32 69 96 49 93 65 26 100 100 34 4 100 4 5 98 20 27 33 22 87 100 45
0 0 0 0 0 0 0 0 0 0 0 0 0 2 5 5 5 5 5 5 5 5 13 92 100 24 47 94 77 46 24 15 5 7 15 97 93 5 92 100 7 100 100
0 0 0 0 0 0 0 0 0 0 0 0 4 5 5 5 5 5 7 8 11 28 17 12 100 81 68 17 58 100 100 100 100 26 6 11 56 13 92 100 76 100 100
0 0 0 0 0 0 0 0 0 0 0 3 5 5 5 5 5 5 23 29 26 24 73 69 79 100 100 100 92 90 60 100 100 100 36 22 52 10 100 100 97 84 93
0 0 0 0 2 5 5 8 5 6 0 2 5 5 5 5 5 5 7 61 100 82 40 67 80 75 80 100 100 100 55 62 45 100 100 100 45 49 100 100 100 100 100
0 0 4 5 48 49 33 8 47 5 51 32 5 5 5 5 5 5 7 67 100 92 98 69 47 77 80 85 96 87 100 71 36 100 99 74 100 100 92 100 100 100 100

GFSSE_prec_cloud_288.txt.gz
Cloud_Cover
0 0 0 0 0 2 0 2 4 5 40 16 100 100 100 100 100 100 9 100 98 100 100 100 96 100 100 100 100 81 100 62 100 100 100 42 100 100 100 84 6 100 100
0 0 0 0 0 0 0 1 0 0 48 19 100 56 100 100 100 100 38 21 100 60 100 100 100 100 99 100 100 100 100 87 76 100 100 41 100 100 100 100 5 85 100
0 0 0 0 0 0 0 0 15 34 100 61 100 94 100 100 85 30 25 13 66 65 100 62 100 98 96 100 100 100 100 100 100 25 24 92 100 88 100 100 47 100 95
0 0 0 0 0 0 0 0 1 99 100 45 100 99 94 20 3 10 59 29 4 84 5 0 8 24 68 100 100 100 100 100 100 87 1 2 11 87 93 100 100 100 100
0 0 0 0 0 0 0 0 2 20 100 100 100 33 2 0 0 0 5 2 0 0 2 0 0 1 12 93 99 28 100 100 100 100 0 1 6 0 6 100 100 100 100
0 0 0 0 0 0 0 0 14 71 37 63 18 1 0 0 0 0 0 0 0 2 0 2 0 0 0 0 18 31 36 100 100 100 99 14 99 7 2 22 97 100 100
0 0 0 0 0 0 0 0 1 3 1 0 0 0 0 0 0 0 0 0 0 0 0 2 2 2 0 0 0 0 73 11 2 22 85 100 99 83 22 1 2 100 84
0 0 0 0 0 0 0 0 0 0 0 0 0 0 0 0 0 2 0 0 0 0 0 2 0 1 1 0 0 0 0 1 0 0 0 4 95 100 100 8 1 44 60
0 0 0 0 0 0 0 0 0 0 0 0 0 0 0 0 0 0 3 2 0 2 0 1 3 5 1 2 0 0 0 0 0 0 0 0 0 35 100 100 13 0 2
0 0 0 0 0 0 0 0 0 0 0 0 0 0 0 0 0 0 0 4 3 1 3 5 5 5 2 0 0 0 2 0 0 0 0 0 0 0 1 94 100 23 0
0 0 0 0 0 0 0 0 0 0 0 0 0 0 0 0 0 0 0 1 5 4 5 5 5 5 5 3 1 3 2 0 0 0 0 0 0 0 0 0 9 100 72
0 0 0 0 0 0 0 0 0 0 0 0 0 0 0 0 0 0 0 5 4 3 4 0 2 2 0 0 0 0 0 0 0 0 0 2 2 2 5 5 0 6 68
0 0 0 0 0 0 0 0 0 0 0 0 0 0 0 0 0 0 0 0 0 0 0 0 0 0 0 0 0 0 0 0 0 0 0 0 3 4 2 5 5 5 1
0 0 0 0 0 0 0 0 0 0 0 0 0 0 0 0 0 0 0 4 0 0 0 0 0 0 0 0 0 0 0 0 0 0 0 0 1 0 1 1 5 21 12
0 0 0 0 0 0 0 0 0 0 0 0 0 0 0 0 0 0 4 1 0 0 4 4 5 3 5 5 5 0 0 1 0 0 2 0 0 2 4 4 0 15 95
0 0 0 0 0 0 0 0 0 0 0 0 0 0 0 0 0 5 0 0 0 3 86 91 37 7 5 5 5 5 0 0 0 0 0 0 0 0 0 0 4 5 51
0 0 0 0 0 0 0 0 0 0 0 0 0 0 0 0 0 4 2 0 2 1 60 100 100 100 94 41 5 4 0 0 0 0 0 0 0 4 1 0 5 5 19
0 0 0 0 0 0 0 0 0 0 0 0 0 0 0 0 0 2 5 5 5 2 96 99 100 100 98 100 5 5 5 5 0 1 5 5 5 5 0 0 7 5 5
0 0 0 0 0 0 0 0 0 0 0 0 0 0 0 0 0 0 5 5 5 4 3 16 14 66 66 19 5 5 5 0 4 7 5 4 5 5 5 5 0 2 16
0 0 0 0 0 0 0 0 0 0 0 0 0 0 0 0 0 1 5 4 1 0 0 0 5 5 5 5 5 5 1 0 8 15 5 2 4 55 5 5 4 0 4
0 0 0 0 0 0 0 0 0 0 0 0 0 0 0 0 0 5 4 4 4 5 2 2 1 5 5 5 5 5 0 0 5 5 0 2 5 5 5 5 5 5 2
0 0 0 2 4 4 4 5 4 2 4 3 2 0 0 0 0 5 3 1 5 4 5 3 3 5 5 5 9 5 21 37 5 1 2 4 5 5 5 5 19 53 43
0 0 0 3 5 5 48 39 5 5 6 69 59 5 5 5 3 0 5 0 4 5 5 5 31 65 89 28 87 86 90 86 73 39 2 5 3 5 12 14 100 99 87
0 0 0 4 5 5 5 5 6 19 32 7 6 10 56 47 6 5 4 3 5 5 5 5 8 85 100 94 91 62 81 99 100 77 31 5 5 5 76 94 100 97 100
0 0 0 5 0 4 0 2 5 5 5 5 5 24 5 10 87 56 5 5 5 99 100 98 6 5 39 93 34 92 45 81 85 100 100 96 5 18 79 45 100 72 100
0 0 0 2 0 0 5 5 4 5 5 5 5 5 5 5 5 90 26 5 5 7 99 100 52 16 6 6 82 94 64 89 90 100 100 97 45 46 38 62 32 49 100